Wind_Speed
25 26 26 26 26 25 24 24 24 25 25 25 24 24 24 26 27 27 28 25 22 21 21 19 17 17 18 18 19 20 20 20 20 19 19 20 20 19 18 19 20 20 20 21 22 22 21 21 21 21 23 24 24 23 22 20 19 22 24 25 26 27
26 27 27 26 25 24 24 24 24 24 25 24 23 24 24 26 27 28 27 23 21 21 20 19 17 16 18 18 19 20 20 20 19 18 19 19 20 19 18 18 19 20 20 21 22 23 21 21 22 21 23 25 26 25 24 22 21 21 22 26 28 28
27 27 26 26 26 25 24 23 23 24 24 24 23 24 24 26 26 26 26 22 20 21 20 19 17 16 16 17 18 18 19 20 19 18 18 19 19 19 18 18 19 20 20 20 20 22 22 22 22 22 23 25 27 27 26 25 23 20 20 25 29 29
28 28 27 27 27 26 24 23 23 24 24 24 23 24 25 26 25 23 24 23 21 21 21 21 18 16 16 17 18 18 18 18 17 17 18 19 19 18 18 18 18 19 20 20 18 19 21 22 23 23 24 25 27 28 28 26 25 21 19 23 28 30
27 28 28 28 27 26 25 24 24 24 24 24 24 25 26 27 25 23 24 23 22 20 19 18 16 16 16 17 17 17 16 16 16 17 18 19 19 18 18 17 17 18 19 19 19 19 19 20 21 23 24 25 26 27 29 28 27 23 19 22 27 29
27 27 27 27 27 26 25 25 24 24 24 24 25 26 27 25 24 24 23 21 20 20 18 16 15 15 17 17 17 16 15 15 16 16 17 19 19 19 19 19 19 19 19 19 19 20 20 19 20 22 24 25 25 27 30 30 30 26 20 22 26 28
26 25 25 26 27 26 26 25 25 25 25 24 25 27 27 27 25 24 23 21 20 19 18 16 16 16 16 16 16 15 13 14 15 15 17 19 20 20 21 22 22 22 21 20 20 20 21 20 20 22 24 24 25 28 31 32 32 29 22 22 25 26
24 24 24 25 26 27 26 26 25 25 25 25 25 26 27 28 26 25 24 22 20 18 16 15 15 15 15 15 14 12 12 13 14 14 15 17 18 20 21 24 25 24 23 22 21 21 21 21 21 22 24 24 24 26 29 32 34 31 25 24 25 26
23 23 24 25 25 26 27 26 25 25 25 25 25 25 25 26 25 24 23 22 20 18 16 15 14 15 16 15 12 11 13 14 13 13 14 15 16 17 19 23 25 25 24 23 23 22 21 21 22 23 24 24 25 25 26 30 33 32 29 27 25 26
23 23 24 25 26 26 27 26 24 24 23 24 24 24 24 23 23 22 22 21 20 17 15 15 15 15 16 15 13 12 13 14 13 14 15 15 15 16 17 20 23 23 23 23 24 24 22 21 21 23 25 26 27 27 27 29 32 34 32 29 26 26
24 24 24 26 26 26 27 26 25 23 22 22 22 23 23 22 21 21 21 21 19 16 14 14 15 15 16 16 15 14 14 13 14 15 16 15 15 15 17 19 21 20 20 21 23 23 23 22 21 22 25 27 28 29 29 28 31 35 35 32 30 28
24 25 25 25 26 26 26 26 24 23 23 21 21 22 22 22 20 19 20 20 19 16 14 14 15 15 16 16 16 16 16 15 15 16 18 17 15 16 18 17 18 18 18 19 20 20 21 21 21 23 24 26 28 28 28 27 30 36 37 35 33 30
24 24 25 24 24 24 25 25 24 23 23 22 21 22 21 20 20 19 18 18 18 17 15 15 16 16 17 17 17 17 18 17 17 18 18 18 16 17 18 15 16 17 16 19 19 19 19 20 21 22 23 24 26 27 26 27 30 35 39 39 36 32
24 24 24 24 23 23 23 24 24 24 23 22 23 24 21 19 19 18 18 18 18 17 16 17 18 18 18 17 17 18 19 18 18 18 17 17 16 17 16 13 16 17 16 18 19 18 19 20 21 21 22 23 24 25 25 26 28 33 39 42 38 34
25 25 24 23 23 22 22 22 23 23 24 23 24 26 24 22 21 19 18 18 18 18 17 17 19 20 19 18 18 19 20 19 18 18 17 17 17 18 18 17 18 17 17 18 19 19 19 20 21 22 22 22 22 24 25 25 26 29 36 41 39 35
25 24 23 22 21 22 22 22 22 22 23 23 24 26 26 25 24 22 21 20 20 19 18 18 19 21 21 19 19 21 21 20 19 18 16 17 18 20 20 19 19 18 17 18 19 19 20 21 21 22 22 22 22 22 22 24 25 27 32 38 40 37
23 21 20 20 20 21 21 21 21 21 22 22 23 24 25 25 25 24 23 22 22 21 20 19 20 22 23 21 22 23 22 21 21 19 17 17 19 20 21 20 19 18 18 19 20 20 21 22 22 22 21 20 21 21 21 22 23 25 28 34 38 38
20 18 18 19 20 20 21 21 21 21 21 21 22 23 24 24 24 25 25 24 23 22 22 21 22 23 24 24 24 25 24 23 22 21 19 19 19 19 20 20 21 20 19 19 20 21 22 23 22 22 21 20 20 21 21 22 23 25 26 30 37 39
19 18 18 19 19 20 21 21 21 21 22 22 22 22 23 24 23 24 25 26 25 24 24 23 24 24 25 26 26 26 26 26 24 23 22 21 20 19 20 21 22 21 20 20 20 21 22 22 20 19 19 20 21 22 22 22 23 24 26 29 34 38
20 19 19 19 20 21 21 22 22 22 22 22 23 23 23 23 23 24 25 26 26 26 25 26 26 26 27 27 27 27 27 28 26 25 24 22 21 21 21 21 22 22 21 21 22 21 22 21 20 18 17 20 21 21 22 23 24 25 26 28 32 36
20 19 19 19 20 20 21 22 22 22 22 22 23 24 24 23 24 24 24 25 26 27 27 27 28 28 28 28 29 28 28 28 28 27 25 23 23 22 22 23 23 23 22 23 22 22 23 23 21 18 17 20 21 20 20 21 23 26 27 28 29 33
20 20 20 19 19 19 20 20 21 22 22 22 23 23 24 24 24 24 24 25 26 27 28 28 29 29 29 29 29 29 29 29 28 27 26 25 24 24 24 24 23 24 23 23 24 23 23 23 22 21 19 20 20 21 22 21 20 22 26 29 30 31
21 20 20 19 19 19 19 19 20 21 21 21 22 22 23 24 24 24 25 25 26 27 28 28 29 29 29 29 29 29 29 29 28 27 26 25 24 24 24 24 24 24 24 24 25 25 23 23 23 24 23 22 21 21 22 22 21 20 20 24 30 32
22 21 20 20 19 19 19 19 19 20 21 21 21 22 23 23 24 24 25 25 26 26 27 28 28 29 29 29 29 28 29 29 28 27 26 25 24 24 23 24 24 24 24 24 25 25 24 24 24 24 23 23 23 22 22 23 23 22 19 19 22 26
23 23 22 21 20 20 20 20 20 21 21 21 21 22 22 23 23 24 24 25 25 26 26 27 28 28 29 29 28 28 28 28 27 26 25 24 24 23 23 23 23 24 24 25 25 25 24 24 24 23 22 22 23 24 24 24 24 23 21 20 19 18
26 25 23 22 21 21 21 20 20 21 22 22 22 22 22 23 23 23 24 24 24 25 25 26 26 27 27 28 28 28 27 27 27 25 24 23 23 22 22 22 23 24 25 25 26 26 25 25 24 23 23 23 23 24 24 24 25 24 23 23 22 21
28 27 26 24 22 23 22 21 20 21 21 22 22 22 22 22 23 23 23 23 23 24 25 25 25 25 26 26 27 27 27 26 26 25 24 23 22 22 21 22 22 23 24 24 25 26 25 25 25 25 24 23 22 22 21 22 23 24 24 23 22 22
30 30 28 25 23 24 24 22 22 22 22 22 22 21 21 22 22 22 22 22 23 23 23 24 24 24 24 24 25 25 25 26 25 23 23 22 22 21 21 21 21 23 24 24 25 25 24 24 25 25 24 24 24 23 22 22 21 22 23 22 20 18
31 32 31 28 26 26 26 25 25 24 22 22 21 21 20 20 20 20 20 21 22 22 22 22 22 22 22 22 22 22 23 23 24 23 22 22 21 21 20 20 21 22 23 24 25 25 24 23 24 24 23 24 25 26 26 26 25 25 25 25 23 22
32 33 33 31 28 27 28 28 27 25 22 21 21 20 19 19 18 18 19 19 20 21 22 22 21 21 21 21 21 21 21 21 22 22 21 21 21 21 20 20 20 21 22 23 24 25 24 23 23 23 22 22 24 26 27 27 28 29 30 29 28 27
33 35 35 33 30 29 29 29 28 25 22 20 20 19 18 18 17 17 18 18 19 19 20 20 20 20 20 20 20 20 20 20 21 21 21 21 20 20 20 20 20 21 22 23 24 24 24 23 22 22 22 22 22 24 25 25 25 27 28 29 28 28
34 35 36 36 33 31 31 30 28 24 22 20 19 18 18 18 17 18 18 18 18 18 18 19 19 19 19 20 20 20 20 20 20 20 20 20 20 20 20 20 20 20 21 22 23 23 23 23 22 21 21 21 21 22 23 23 23 24 25 25 25 26
36 36 37 37 35 33 31 29 27 24 22 20 18 17 17 17 17 17 18 18 18 18 18 18 18 18 18 18 19 19 19 19 19 19 19 20 20 20 20 20 20 20 21 21 21 22 22 22 22 21 21 21 21 21 22 22 22 22 23 23 23 24
37 37 38 38 36 34 31 28 26 24 22 21 20 17 16 17 17 17 18 18 18 18 18 18 18 17 17 17 17 17 17 17 17 18 19 19 19 19 20 20 20 20 20 20 20 21 21 21 21 20 20 20 20 20 20 21 21 21 21 22 22 22
40 39 39 39 36 34 30 27 25 24 22 22 20 18 17 18 18 19 19 19 18 19 19 19 18 18 18 17 17 16 16 16 16 17 17 18 18 19 19 19 19 19 20 19 19 20 20 20 20 19 19 19 19 19 20 20 20 20 20 20 21 21
40 38 38 38 35 32 29 26 25 24 22 21 20 18 18 19 20 20 20 20 20 20 20 20 19 19 19 18 18 17 16 15 15 15 16 16 17 17 18 18 18 19 19 19 19 19 19 19 20 19 19 19 19 19 19 19 19 19 19 19 19 19
38 36 36 36 33 31 28 26 26 24 22 21 20 19 20 21 22 22 21 21 21 21 21 20 20 19 19 19 19 18 18 17 16 15 15 16 16 16 17 17 17 17 18 18 19 19 19 19 19 19 19 18 18 18 18 19 19 18 18 18 18 18
Wind_Direction
282 283 285 286 285 285 285 284 282 280 279 279 278 277 276 273 271 268 268 271 271 268 268 269 267 263 258 257 256 255 255 256 258 260 261 262 261 259 254 242 234 234 234 234 234 234 233 234 234 233 234 231 227 226 229 229 225 222 214 206 204 207
282 282 285 287 287 286 285 283 280 277 276 277 279 278 274 269 267 265 267 272 272 268 266 266 264 261 259 258 256 255 256 255 256 258 258 258 259 257 252 243 235 235 236 234 233 233 233 233 233 233 233 234 231 227 228 229 226 221 213 208 208 210
282 284 286 288 288 287 284 281 279 278 278 278 278 276 272 269 266 263 266 271 270 269 267 262 256 255 257 257 255 255 256 257 256 254 253 255 257 256 252 245 239 237 239 241 235 233 235 234 233 233 233 233 234 232 229 229 229 223 211 211 213 212
282 284 286 288 288 287 285 283 281 281 280 276 274 271 269 269 269 266 266 268 267 268 267 260 254 254 256 255 253 254 255 256 253 250 250 252 255 256 254 248 244 241 243 249 244 237 237 237 234 233 234 234 233 235 235 232 231 226 211 212 217 215
282 283 285 287 288 288 287 284 282 281 278 275 272 269 268 268 269 269 268 267 267 268 266 261 258 255 255 254 251 250 251 251 248 246 247 249 253 255 255 253 249 246 244 248 248 242 240 240 238 236 237 238 234 234 238 238 235 230 215 213 219 218
282 282 283 284 285 285 284 282 281 279 277 275 269 267 272 271 267 269 271 270 267 267 268 268 265 258 255 254 250 247 246 248 248 247 248 247 250 252 254 254 251 247 244 245 247 246 244 242 240 239 240 242 240 235 235 237 237 232 221 219 221 220
283 281 281 281 283 283 283 283 282 281 278 275 270 268 273 273 270 270 270 269 268 266 267 267 265 259 253 251 250 251 251 251 250 249 249 247 247 249 251 252 251 249 247 246 248 249 248 245 242 241 244 247 246 242 236 233 235 233 226 225 224 222
286 285 282 280 282 282 283 283 282 282 279 276 272 269 271 271 272 270 265 265 265 263 264 264 263 259 254 254 256 259 257 255 253 249 249 248 247 247 247 249 250 250 250 249 249 249 249 248 245 245 248 251 250 249 243 236 233 231 227 229 228 225
289 289 288 284 282 281 282 283 282 282 280 277 273 271 270 270 272 271 266 267 266 263 262 263 263 261 261 265 266 261 256 256 257 250 247 248 245 244 246 248 248 249 250 251 251 250 249 248 246 246 247 250 251 249 247 240 234 230 228 230 231 229
290 289 288 287 284 280 280 280 281 282 281 278 275 273 273 273 273 269 265 266 266 264 262 262 265 267 268 271 274 266 255 254 255 252 251 246 241 241 244 245 247 250 251 251 252 251 249 247 246 246 246 247 250 249 246 242 234 229 228 231 233 232
291 290 289 290 288 284 280 279 279 280 280 277 275 275 275 274 271 265 261 260 262 264 266 266 267 271 273 275 276 272 263 257 254 257 256 249 246 245 241 240 245 250 253 253 252 251 250 248 247 247 246 245 248 249 249 246 238 231 227 228 232 233
290 292 293 296 295 289 283 281 282 283 282 282 280 278 275 272 267 263 260 260 263 268 271 270 270 272 273 274 273 274 272 266 260 262 262 257 254 246 237 238 246 251 254 256 256 253 251 249 246 246 247 246 247 250 254 253 246 237 229 225 228 232
290 293 296 299 298 292 286 283 285 287 287 286 285 282 278 272 267 265 263 263 266 269 272 271 271 271 273 272 271 274 273 270 267 266 266 263 256 245 240 244 252 255 255 257 258 256 254 252 248 247 247 248 247 249 253 254 251 243 232 224 224 228
291 293 295 297 298 294 290 288 288 289 289 288 288 288 288 282 274 270 266 265 267 269 271 272 272 272 274 275 273 273 271 269 269 269 270 267 261 257 257 261 262 263 263 261 262 260 258 255 251 250 249 249 251 252 253 253 253 248 236 226 222 224
290 291 292 295 298 296 293 292 291 291 290 291 291 292 294 292 287 284 277 273 272 271 272 274 275 275 278 280 278 275 274 272 272 272 274 273 270 268 267 267 265 266 266 265 267 266 263 259 256 254 251 250 253 253 252 252 254 252 240 228 223 221
289 288 287 289 293 294 293 292 291 289 289 289 288 290 291 291 291 290 286 281 277 274 273 273 274 275 277 278 276 273 274 277 277 276 277 279 279 275 271 270 268 265 265 265 267 266 266 264 260 257 254 251 250 250 249 250 251 251 242 230 225 223
288 284 280 283 286 287 287 287 287 285 285 284 283 285 285 286 287 287 284 280 277 274 272 272 271 274 276 276 277 276 275 278 280 281 284 285 283 280 277 276 272 266 265 266 265 265 265 263 261 259 256 252 249 246 244 246 246 247 244 234 228 228
285 280 275 277 280 282 282 282 283 282 282 281 280 279 279 279 281 281 279 276 273 271 270 270 271 274 277 279 281 282 282 285 286 288 290 287 284 281 279 278 276 270 267 269 269 268 266 263 263 262 259 254 250 248 243 243 243 242 242 237 232 230
281 278 276 277 279 281 282 281 282 282 282 281 280 277 276 276 276 276 275 273 272 270 269 269 270 273 277 279 281 282 285 288 288 288 287 286 284 282 280 279 276 270 268 270 271 270 269 267 265 266 264 258 255 252 246 242 241 241 241 238 235 232
278 278 279 279 282 283 284 284 282 282 282 283 282 280 277 275 274 274 274 273 272 271 270 270 271 273 275 277 279 281 283 285 284 283 283 283 283 281 278 277 274 271 271 273 272 270 270 267 263 266 266 262 261 257 250 243 238 238 240 240 239 237
279 280 281 282 285 287 289 289 286 283 281 282 283 282 280 278 276 275 274 273 272 271 271 271 272 273 274 276 278 280 280 280 281 281 281 280 279 278 276 275 273 273 274 274 272 270 269 266 262 263 262 261 264 262 259 258 246 237 237 239 240 240
281 282 284 287 289 290 292 293 291 287 283 281 281 281 281 280 279 277 276 275 274 273 272 272 272 273 275 276 277 278 278 277 278 279 279 278 276 275 275 275 273 272 272 271 271 269 266 265 264 263 263 263 264 262 263 270 264 248 240 239 239 240
283 284 287 289 291 292 292 294 294 291 287 284 281 279 279 279 279 279 278 277 276 275 275 274 274 275 275 275 275 275 275 275 275 275 276 276 275 274 273 272 270 269 269 268 268 267 265 264 263 263 264 264 264 263 262 265 268 265 258 248 240 238
284 286 289 291 293 294 293 294 295 294 290 286 283 280 278 277 277 277 277 277 277 276 276 276 275 275 274 274 273 273 272 273 272 273 273 274 273 271 269 268 268 268 266 265 266 266 266 264 263 263 264 263 263 264 263 263 265 268 271 265 252 245
287 288 291 293 295 295 295 294 295 295 293 289 285 282 279 277 276 274 274 274 275 275 275 275 273 273 272 272 272 271 270 271 271 271 271 270 270 268 266 265 265 266 265 264 265 265 266 264 263 264 265 264 265 266 265 265 266 268 269 267 265 264
288 290 292 294 295 296 297 295 295 296 294 291 287 283 280 277 275 273 273 273 274 275 275 275 274 273 271 270 270 270 269 269 269 269 268 267 266 266 265 263 264 264 263 264 264 264 264 265 264 263 263 264 265 268 267 265 267 270 271 270 270 274
289 291 292 294 296 298 298 297 296 297 295 293 288 284 281 277 275 273 272 273 274 275 276 276 276 274 273 271 270 269 268 268 268 267 266 265 264 263 263 263 263 264 264 264 264 264 264 265 264 262 262 262 261 264 266 266 267 269 273 275 275 276
288 291 292 294 297 299 299 299 299 299 296 291 286 282 279 277 275 273 272 273 273 274 275 274 274 274 273 272 270 268 267 267 267 266 265 264 264 263 262 262 263 264 265 265 265 265 265 265 265 263 261 260 257 259 262 265 266 268 270 270 271 275
287 289 291 294 298 299 299 300 301 299 294 288 282 278 276 275 275 274 274 274 274 274 274 274 273 273 273 272 271 270 269 268 268 267 265 263 263 263 263 262 262 263 265 266 266 267 266 264 265 264 262 259 259 259 259 261 262 261 261 263 268 273
284 286 289 293 296 297 298 299 299 295 288 281 277 274 272 273 273 274 275 276 275 275 275 275 274 273 273 272 272 272 271 270 269 268 267 265 264 264 264 263 263 263 264 266 267 268 268 266 265 264 263 260 260 260 260 260 260 260 259 262 269 272
280 283 287 290 293 295 296 296 293 288 281 275 271 269 269 270 271 272 274 275 276 276 276 276 276 275 273 273 272 271 271 271 270 269 269 268 267 267 267 267 265 264 264 265 266 267 268 268 266 265 264 261 260 261 262 262 261 261 262 263 265 267
278 282 285 287 289 291 292 291 286 280 274 270 267 267 268 269 270 271 273 274 275 275 277 277 277 277 275 274 274 272 271 271 271 270 269 268 269 269 271 270 269 268 267 267 266 267 268 268 267 265 264 263 262 262 262 263 262 261 263 264 263 263
277 279 282 284 286 287 288 285 278 272 269 267 267 268 270 272 272 272 273 274 274 274 274 275 276 276 275 274 274 274 273 273 272 273 271 270 269 269 270 271 272 272 271 270 269 269 269 269 269 267 266 265 263 263 263 264 264 262 262 263 262 262
275 277 278 280 282 284 283 277 269 265 265 266 268 268 271 273 273 273 274 274 274 273 272 273 274 275 275 273 273 273 274 274 274 274 273 272 271 270 270 271 271 272 272 272 271 270 270 270 270 269 267 266 264 263 264 264 263 262 261 261 262 261
272 273 273 275 277 278 276 270 263 261 262 265 266 268 271 272 271 271 272 272 274 274 273 273 273 274 274 273 273 272 272 273 273 273 272 272 272 272 272 273 273 273 273 273 272 271 270 270 270 270 268 266 265 263 262 262 261 259 258 258 259 259
268 268 268 271 273 272 269 263 260 259 261 264 265 267 270 271 270 270 270 271 273 274 274 274 273 274 273 273 272 271 270 269 269 269 269 269 269 271 272 274 276 277 277 276 275 274 272 271 270 270 270 268 266 265 264 262 261 259 256 255 255 255
265 265 265 267 268 266 263 259 257 258 260 263 266 268 269 271 272 272 271 272 272 273 274 274 274 274 274 272 271 270 268 267 265 265 266 265 265 266 268 271 273 276 278 279 279 278 276 273 271 269 269 269 267 266 265 264 263 262 259 256 255 254
Height
5812 5811 5811 5811 5810 5811 5812 5812 5811 5810 5810 5810 5810 5810 5811 5810 5809 5808 5806 5805 5807 5808 5808 5809 5810 5810 5810 5811 5811 5811 5811 5811 5812 5812 5812 5812 5813 5814 5815 5815 5817 5818 5819 5820 5821 5822 5823 5824 5825 5826 5827 5827 5828 5829 5830 5831 5833 5834 5837 5839 5840 5840
5809 5809 5809 5808 5808 5809 5809 5809 5808 5808 5808 5808 5808 5808 5808 5807 5805 5805 5804 5803 5805 5805 5806 5807 5808 5808 5808 5809 5809 5809 5809 5810 5810 5811 5811 5811 5811 5812 5813 5814 5815 5816 5817 5818 5819 5821 5822 5823 5823 5824 5825 5826 5827 5827 5828 5830 5831 5832 5835 5838 5837 5838
5805 5806 5806 5805 5805 5806 5807 5806 5806 5806 5806 5806 5806 5806 5805 5803 5803 5803 5801 5801 5802 5803 5804 5804 5805 5805 5806 5807 5807 5807 5808 5809 5809 5810 5810 5810 5810 5810 5811 5812 5814 5815 5815 5816 5817 5819 5820 5821 5822 5823 5823 5824 5825 5826 5827 5828 5829 5831 5834 5836 5835 5836
5803 5803 5803 5802 5802 5803 5803 5803 5803 5803 5804 5804 5803 5803 5802 5800 5800 5801 5799 5799 5801 5801 5801 5802 5802 5803 5804 5805 5805 5806 5807 5808 5808 5808 5809 5809 5809 5809 5810 5811 5812 5813 5814 5814 5815 5817 5818 5819 5820 5821 5822 5822 5823 5825 5825 5826 5827 5829 5833 5834 5834 5835
5801 5800 5800 5799 5799 5799 5799 5799 5799 5800 5800 5801 5800 5799 5798 5798 5798 5798 5797 5797 5799 5799 5800 5801 5801 5802 5803 5804 5804 5805 5806 5806 5806 5807 5807 5808 5808 5809 5809 5810 5811 5812 5812 5813 5814 5815 5816 5818 5819 5819 5820 5821 5822 5823 5824 5825 5826 5828 5832 5832 5832 5833
5799 5799 5798 5797 5797 5797 5797 5796 5797 5797 5797 5798 5797 5795 5795 5796 5796 5796 5795 5795 5797 5798 5799 5800 5801 5801 5802 5802 5803 5804 5804 5804 5804 5805 5806 5807 5808 5808 5808 5808 5809 5810 5810 5811 5812 5813 5814 5816 5817 5817 5818 5819 5820 5821 5822 5823 5823 5826 5830 5830 5830 5832
5796 5797 5796 5795 5794 5795 5794 5794 5794 5794 5794 5794 5794 5792 5792 5792 5793 5794 5794 5795 5796 5797 5798 5798 5799 5800 5800 5800 5801 5802 5803 5803 5804 5805 5806 5806 5806 5806 5806 5806 5806 5807 5808 5809 5810 5811 5812 5813 5815 5815 5816 5817 5818 5819 5819 5820 5821 5823 5827 5828 5829 5830
5794 5794 5794 5793 5792 5791 5791 5791 5791 5791 5791 5791 5791 5790 5790 5789 5790 5792 5794 5794 5795 5796 5796 5797 5798 5798 5798 5799 5800 5802 5802 5802 5803 5804 5805 5805 5805 5805 5805 5804 5804 5804 5805 5806 5807 5809 5810 5811 5812 5813 5814 5815 5816 5817 5817 5818 5819 5821 5824 5826 5827 5828
5792 5791 5791 5790 5790 5789 5788 5788 5788 5788 5789 5788 5788 5788 5788 5788 5789 5790 5791 5792 5793 5794 5794 5796 5796 5796 5797 5797 5798 5800 5801 5802 5803 5804 5803 5803 5803 5803 5802 5802 5801 5801 5802 5803 5804 5806 5807 5809 5810 5811 5811 5813 5814 5814 5815 5816 5817 5819 5821 5823 5824 5826
5788 5789 5788 5788 5788 5787 5786 5786 5786 5787 5787 5787 5786 5786 5786 5786 5787 5787 5788 5789 5790 5791 5792 5793 5793 5793 5794 5795 5796 5797 5799 5800 5802 5802 5801 5800 5800 5800 5800 5800 5799 5799 5800 5800 5801 5803 5804 5806 5807 5808 5809 5810 5811 5811 5812 5813 5815 5816 5818 5821 5822 5823
5785 5786 5786 5785 5784 5784 5784 5784 5784 5785 5785 5786 5785 5785 5785 5785 5785 5786 5787 5788 5788 5789 5790 5791 5791 5791 5792 5793 5794 5795 5795 5797 5799 5798 5797 5796 5796 5797 5797 5797 5797 5797 5798 5798 5799 5801 5802 5803 5805 5805 5806 5807 5808 5808 5809 5811 5812 5813 5815 5818 5819 5821
5784 5783 5783 5782 5781 5781 5781 5781 5781 5782 5781 5782 5783 5783 5783 5785 5785 5785 5786 5786 5786 5786 5788 5789 5789 5790 5791 5792 5792 5792 5792 5793 5794 5794 5793 5792 5792 5794 5794 5795 5795 5795 5796 5796 5796 5798 5799 5800 5802 5802 5803 5803 5804 5805 5807 5808 5809 5810 5812 5814 5816 5818
5783 5782 5782 5781 5780 5779 5779 5779 5779 5779 5779 5779 5780 5780 5781 5782 5783 5783 5784 5784 5784 5785 5786 5787 5788 5789 5790 5790 5791 5791 5790 5791 5791 5791 5790 5791 5792 5793 5793 5795 5795 5794 5794 5793 5794 5796 5797 5797 5799 5799 5800 5800 5801 5802 5804 5805 5805 5806 5808 5810 5813 5815
5782 5781 5781 5780 5779 5778 5777 5777 5777 5777 5777 5777 5777 5776 5778 5779 5780 5781 5782 5783 5783 5784 5785 5785 5786 5786 5787 5788 5788 5789 5788 5788 5789 5789 5788 5789 5791 5792 5793 5794 5794 5793 5793 5792 5792 5793 5794 5795 5796 5796 5797 5797 5798 5799 5800 5801 5802 5802 5803 5806 5810 5812
5780 5780 5779 5778 5778 5777 5776 5775 5775 5775 5775 5775 5774 5772 5774 5775 5776 5778 5780 5781 5782 5783 5783 5783 5783 5782 5783 5784 5785 5785 5784 5784 5785 5786 5786 5786 5787 5789 5790 5791 5791 5791 5791 5791 5790 5791 5791 5792 5793 5794 5794 5795 5795 5795 5796 5798 5798 5799 5800 5803 5807 5809
5778 5778 5778 5777 5777 5776 5775 5775 5774 5774 5773 5774 5773 5771 5772 5772 5773 5774 5776 5778 5779 5780 5781 5781 5781 5779 5779 5780 5782 5782 5780 5781 5782 5784 5785 5784 5785 5786 5786 5788 5789 5790 5789 5789 5789 5789 5789 5789 5790 5791 5791 5792 5793 5793 5793 5795 5795 5796 5798 5801 5804 5806
5776 5776 5776 5776 5776 5775 5774 5774 5773 5773 5772 5772 5772 5772 5771 5772 5773 5773 5774 5775 5776 5778 5779 5779 5779 5778 5777 5777 5778 5778 5778 5779 5780 5782 5783 5784 5784 5784 5784 5784 5786 5788 5787 5786 5786 5786 5787 5786 5787 5788 5789 5790 5790 5790 5791 5792 5793 5794 5796 5799 5802 5804
5774 5774 5774 5774 5774 5774 5773 5772 5772 5772 5771 5771 5771 5771 5771 5771 5772 5772 5773 5773 5774 5776 5777 5778 5778 5777 5776 5776 5776 5776 5777 5778 5778 5779 5780 5782 5783 5783 5782 5782 5783 5785 5785 5784 5783 5784 5784 5784 5785 5786 5786 5787 5787 5787 5788 5789 5791 5792 5793 5796 5799 5800
5772 5772 5772 5772 5772 5772 5771 5771 5771 5770 5770 5770 5770 5770 5770 5770 5771 5771 5771 5772 5773 5774 5775 5775 5776 5775 5775 5775 5775 5775 5775 5776 5777 5778 5779 5780 5781 5781 5780 5780 5782 5783 5783 5782 5781 5781 5782 5783 5784 5784 5784 5784 5784 5785 5785 5787 5788 5789 5791 5793 5795 5797
5770 5770 5770 5770 5770 5770 5770 5769 5769 5769 5768 5768 5768 5768 5768 5769 5769 5770 5770 5770 5770 5771 5772 5773 5773 5773 5773 5773 5773 5774 5774 5774 5775 5776 5778 5779 5779 5779 5778 5778 5779 5780 5780 5779 5779 5779 5780 5781 5782 5782 5782 5782 5782 5782 5783 5783 5785 5786 5788 5790 5792 5793
5768 5768 5768 5768 5768 5768 5768 5768 5767 5767 5767 5766 5766 5766 5766 5767 5767 5768 5768 5768 5768 5769 5769 5770 5770 5770 5771 5771 5771 5772 5772 5773 5773 5774 5775 5777 5776 5776 5776 5777 5777 5777 5777 5777 5776 5778 5778 5779 5780 5780 5780 5780 5780 5781 5781 5781 5782 5783 5784 5786 5788 5790
5765 5766 5766 5766 5766 5766 5766 5766 5766 5765 5765 5765 5765 5765 5765 5765 5765 5765 5766 5766 5766 5766 5766 5767 5767 5768 5768 5769 5769 5770 5770 5771 5771 5771 5772 5774 5774 5774 5775 5775 5775 5775 5775 5774 5774 5775 5776 5777 5778 5778 5778 5778 5778 5779 5779 5779 5780 5780 5781 5782 5784 5786
5763 5763 5764 5764 5764 5764 5764 5764 5764 5764 5763 5763 5763 5763 5763 5763 5763 5763 5763 5763 5763 5763 5764 5764 5764 5765 5766 5766 5767 5767 5767 5768 5769 5769 5770 5771 5771 5772 5773 5773 5772 5772 5772 5772 5772 5772 5774 5774 5775 5775 5776 5776 5776 5777 5778 5778 5778 5778 5779 5779 5780 5782
5761 5761 5761 5762 5762 5762 5762 5762 5762 5762 5761 5761 5761 5761 5761 5761 5761 5761 5761 5761 5761 5761 5761 5761 5761 5762 5763 5763 5764 5765 5765 5765 5766 5767 5767 5769 5769 5769 5770 5770 5770 5770 5770 5770 5770 5770 5771 5772 5772 5773 5774 5774 5774 5775 5776 5776 5776 5776 5777 5777 5778 5779
5758 5758 5759 5760 5760 5760 5760 5760 5760 5759 5759 5759 5759 5759 5759 5759 5759 5759 5759 5759 5759 5759 5759 5759 5759 5759 5760 5760 5761 5762 5762 5762 5763 5764 5765 5766 5766 5766 5767 5767 5767 5767 5767 5767 5768 5768 5768 5769 5770 5771 5771 5772 5772 5773 5773 5774 5774 5775 5775 5775 5775 5776
5755 5756 5757 5757 5757 5757 5757 5757 5757 5757 5756 5756 5756 5757 5757 5757 5757 5757 5757 5757 5757 5757 5756 5756 5756 5757 5757 5758 5758 5759 5759 5759 5760 5761 5762 5763 5763 5763 5764 5764 5764 5764 5764 5765 5765 5765 5766 5766 5767 5767 5768 5769 5770 5770 5771 5771 5771 5772 5772 5773 5773 5774
5752 5753 5754 5755 5755 5755 5755 5755 5755 5755 5754 5754 5754 5754 5754 5755 5755 5755 5755 5755 5755 5755 5754 5754 5754 5754 5755 5755 5756 5756 5757 5757 5757 5758 5758 5759 5760 5760 5761 5761 5761 5761 5761 5762 5763 5763 5763 5764 5764 5765 5765 5767 5768 5768 5768 5768 5768 5769 5770 5770 5770 5771
5750 5750 5751 5752 5752 5752 5752 5752 5752 5752 5752 5752 5752 5752 5752 5752 5752 5753 5753 5753 5753 5753 5752 5752 5752 5752 5752 5753 5753 5754 5754 5754 5755 5755 5755 5756 5757 5757 5758 5758 5758 5758 5758 5759 5760 5760 5761 5761 5761 5762 5763 5764 5765 5766 5766 5766 5766 5767 5767 5768 5768 5768
5747 5747 5748 5749 5750 5750 5750 5750 5750 5750 5750 5750 5750 5750 5750 5750 5750 5750 5750 5750 5750 5750 5750 5750 5750 5750 5750 5750 5751 5751 5752 5752 5752 5752 5753 5753 5754 5754 5755 5755 5755 5755 5755 5756 5756 5757 5758 5758 5759 5759 5760 5761 5762 5763 5764 5764 5764 5765 5765 5765 5765 5766
5744 5745 5745 5746 5747 5747 5747 5747 5747 5747 5748 5748 5748 5748 5748 5748 5748 5748 5748 5748 5748 5748 5748 5748 5748 5748 5748 5748 5748 5748 5749 5749 5749 5750 5750 5750 5751 5751 5752 5752 5753 5753 5753 5753 5753 5754 5754 5755 5756 5756 5757 5758 5759 5760 5760 5761 5762 5762 5762 5762 5763 5763
5742 5742 5742 5743 5744 5745 5745 5745 5745 5745 5745 5746 5746 5745 5745 5746 5746 5746 5746 5746 5746 5746 5746 5746 5746 5745 5745 5745 5746 5746 5746 5747 5747 5747 5747 5748 5748 5749 5749 5750 5750 5751 5751 5751 5751 5751 5751 5752 5753 5754 5754 5755 5756 5757 5757 5758 5759 5759 5759 5760 5760 5761
5740 5740 5740 5740 5742 5742 5742 5742 5742 5742 5743 5743 5743 5743 5743 5744 5744 5744 5744 5744 5744 5744 5744 5744 5744 5744 5743 5743 5743 5744 5744 5744 5745 5745 5745 5745 5746 5746 5747 5747 5748 5748 5748 5749 5749 5749 5749 5749 5750 5751 5751 5752 5753 5754 5754 5755 5755 5756 5756 5757 5757 5758
5737 5738 5737 5737 5738 5739 5740 5740 5740 5740 5740 5741 5741 5741 5741 5742 5742 5742 5742 5742 5742 5742 5742 5742 5742 5742 5742 5741 5741 5742 5742 5742 5743 5743 5743 5743 5743 5744 5744 5745 5745 5746 5746 5747 5747 5747 5747 5747 5747 5748 5749 5749 5750 5751 5751 5752 5752 5753 5753 5753 5754 5755
5734 5735 5735 5735 5735 5736 5737 5737 5737 5738 5738 5738 5738 5739 5739 5740 5740 5740 5740 5740 5740 5740 5740 5740 5740 5740 5740 5740 5740 5740 5740 5740 5741 5741 5741 5741 5742 5742 5742 5743 5743 5744 5744 5745 5745 5745 5745 5745 5745 5746 5746 5747 5747 5748 5748 5749 5749 5750 5750 5751 5751 5752
5730 5732 5732 5732 5733 5733 5734 5734 5735 5735 5735 5735 5736 5736 5737 5737 5738 5738 5738 5738 5738 5738 5738 5738 5739 5739 5739 5738 5738 5738 5738 5739 5739 5739 5739 5740 5740 5740 5740 5741 5741 5741 5742 5743 5743 5743 5743 5743 5744 5744 5744 5744 5745 5745 5746 5746 5746 5747 5747 5748 5748 5749
5727 5728 5729 5729 5729 5730 5731 5731 5732 5732 5733 5733 5733 5733 5734 5735 5735 5735 5736 5736 5736 5736 5736 5736 5737 5737 5737 5737 5737 5737 5737 5737 5737 5737 5737 5737 5738 5738 5738 5738 5739 5739 5740 5740 5741 5741 5741 5742 5742 5742 5742 5743 5743 5743 5743 5744 5744 5744 5745 5745 5745 5746
5724 5724 5725 5725 5725 5726 5727 5728 5729 5729 5730 5730 5730 5731 5732 5732 5733 5733 5733 5733 5734 5734 5734 5734 5735 5735 5735 5735 5735 5735 5735 5735 5735 5735 5735 5735 5736 5736 5736 5736 5736 5737 5737 5738 5738 5739 5739 5740 5740 5740 5740 5741 5741 5741 5741 5742 5742 5742 5742 5743 5743 5743